Simultaneous Nadir Overpasses (SNOs) Predictions

Prediction of SNOs between NOAA-19 and METOP-C Satellite Orbit:

Table of predicted SNOs for the next 14.0 days since TLE Epoch: 3/22/2025
Index Date (NOAA-19) Time (NOAA-19) Lat,Lon (NOAA-19) SZA (NOAA-19 ) Date (METOP-C) Time (METOP-C) Lat,Lon (METOP-C) SZA (METOP-C ) Distance(km) Time Diff (sec)
1 03/30/2025 08:33:29 79.44, 139.52 85.56 03/30/2025 08:34:30 79.45, 139.45 85.59 1.51 61
2 03/30/2025 09:24:23 -79.46, -53.38 94.49 03/30/2025 09:25:11 -79.45, -53.26 94.43 2.74 48
3 03/30/2025 10:15:22 79.33, 115.03 85.71 03/30/2025 10:15:48 79.33, 115.05 85.73 0.36 26
4 03/30/2025 11:06:13 -79.25, -77.06 94.19 03/30/2025 11:06:27 -79.26, -77.14 94.20 1.98 14
5 03/30/2025 11:57:15 79.21, 90.53 85.86 03/30/2025 11:57:06 79.20, 90.63 85.87 2.23 9
6 03/30/2025 12:48:05 -79.10,-101.32 93.99 03/30/2025 12:47:44 -79.10,-101.32 94.01 0.13 21
7 03/30/2025 13:39:03 78.92, 67.27 86.26 03/30/2025 13:38:20 78.93, 67.17 86.21 2.42 43



Historial Predications of SNOs between NOAA-19 and METOP-C
